Regional Weather Roundup
Issued by NWS

Home | Current Version | Previous Version | Graphics & Text | Print | Product List | Glossary On
Versions: 1 2 3 4 5 6 7 8 9 10 11 12 13 14 15 16 17 18 19 20 21 22 23 24 25 26 27 28 29 30 31 32 33 34 35 36 37 38 39 40 41 42 43 44 45 46 47 48 49 50
000
ASUS43 KOAX 042102
RWRNE

WEATHER ROUNDUP FOR NEBRASKA
NATIONAL WEATHER SERVICE OMAHA NE
400 PM CDT FRI SEP 04 2015

NOTES: SATELLITE DATA IS BEING USED TO AUGMENT CLOUD COVER ABOVE
       12000 FEET.
       "FAIR" INDICATES FEW OR NO CLOUDS BELOW 12,000 FEET WITH NO
       SIGNIFICANT WEATHER AND/OR OBSTRUCTIONS TO VISIBILITY.

  * THESE STATIONS DO NOT REPORT WEATHER SUCH AS RAIN...SNOW OR FOG.

NEZ001>004-019>022-054>056-042200-
NEBRASKA PANHANDLE

CITY           SKY/WX    TMP DP  RH WIND       PRES   REMARKS
SCOTTSBLUFF    FAIR      89  39  17 SE9       29.88S
ALLIANCE       FAIR      93  47  20 S8        29.87S
CHADRON        FAIR      92  45  19 VRB3      29.81F
KIMBALL        FAIR      91  37  15 S14       29.92F
SIDNEY         FAIR      93  41  16 SW6       29.91F
$$

NEZ057>060-069>072-079>082-042200-
SOUTHWEST NEBRASKA

CITY           SKY/WX    TMP DP  RH WIND       PRES   REMARKS
NORTH PLATTE   FAIR      91  57  31 VRB3      29.83F
IMPERIAL       FAIR      93  49  22 VRB3      29.86F HX  90
LEXINGTON      FAIR      92  60  33 S9        29.83F HX  92
MCCOOK         FAIR      94  57  28 VRB5      29.83F HX  92
$$

NEZ005>010-023>029-035>040-094-042200-
NORTH CENTRAL NEBRASKA

CITY           SKY/WX    TMP DP  RH WIND       PRES   REMARKS
VALENTINE      FAIR      94  52  24 VRB6      29.79F HX  91
AINSWORTH      FAIR      91  61  36 SE6       29.81F HX  91
BROKEN BOW     FAIR      90  63  40 S15G25    29.83F HX  91
ORD            FAIR      89  63  41 S15G26    29.81F HX  90
$$

NEZ041-046>049-061>064-073>077-083>087-042200-
SOUTH CENTRAL NEBRASKA

CITY           SKY/WX    TMP DP  RH WIND       PRES   REMARKS
GRAND ISLAND   FAIR      94  65  38 S16G30    29.82F HX  96
AURORA         FAIR      91  65  42 S21G29    29.82F HX  93
HASTINGS       FAIR      95  63  34 S20G30    29.82F HX  96
HEBRON         FAIR      92  62  36 S20G28    29.85F HX  92
HOLDREGE       FAIR      94  56  28 S13G25    29.83S HX  92
KEARNEY *      FAIR      93  64  38 S13       29.82S HX  95
YORK           FAIR      90  68  48 S14G23    29.84F HX  93
$$

NEZ011>018-030>034-042>045-042200-
NORTHEAST NEBRASKA

CITY           SKY/WX    TMP DP  RH WIND       PRES   REMARKS
NORFOLK        FAIR      90  69  50 S15G29    29.82F HX  94
ALBION         FAIR      89  67  48 S15G24    29.82F HX  91
BLAIR          FAIR      87  67  51 S13G25    29.87F HX  90
COLUMBUS *     FAIR      91  68  46 S15       29.82F HX  95
FREMONT        FAIR      88  68  51 SE13      29.86S HX  92
TEKAMAH        FAIR      88  74  63 SE13      29.85F HX  96
$$

NEZ050>053-065>068-078-088>093-042200-
SOUTHEAST NEBRASKA

CITY           SKY/WX    TMP DP  RH WIND       PRES   REMARKS
LINCOLN        FAIR      91  68  46 S20       29.84F HX  95
OMAHA EPPLEY   FAIR      90  72  55 S17       29.87F HX  97
BEATRICE       FAIR      91  66  42 S15G26    29.86F HX  94
FALLS CITY     FAIR      93  65  39 S18G24    29.90F HX  95
NEBRASKA CITY  FAIR      91  58  32 S17       29.88F HX  90
PLATTSMOUTH    FAIR      87  69  56 SE9       29.88F HX  91
$$

NEZ044-045-051>053-067-042200-
OMAHA AREA

CITY           SKY/WX    TMP DP  RH WIND       PRES   REMARKS
OMAHA EPPLEY   FAIR      90  72  55 S17       29.87F HX  97
BLAIR          FAIR      87  67  51 S13G25    29.87F HX  90
FREMONT        FAIR      88  68  51 SE13      29.86S HX  92
OFFUTT AFB     FAIR      88  72  58 SE14      29.86F HX  94
PLATTSMOUTH    FAIR      87  69  56 SE9       29.88F HX  91
WAHOO          FAIR      88  70  55 S15       29.85S HX  93
$$



USA.gov is the U.S. government's official web portal to all federal, state and local government web resources and services.